Location: Boiro
(42.6475°N, 8.8834°W)
Time: 23:24:57
(UTC+01:00)

Altair - Pass Details

Date: 06 December 2021
Orbit: 1501 x 1683 km, 47.2° (Epoch: 18 January)

Event Time Altitude Azimuth Distance (km) Brightness Sun altitude
Rises 17:27:38 0° 249° (WSW) 4,792 12.0 4.4°
Reaches altitude 10° 17:30:46 10° 250° (WSW) 3,783 11.4 4.0°
Maximum altitude 17:40:22 83° 339° (NNW) 1,554 7.7 2.5°
Drops below altitude 10° 17:49:40 10° 68° (ENE) 3,671 8.9 1.1°
Sets 17:52:40 0° 70° (ENE) 4,644 9.4 0.6°
